Time,TemperatureF,DewpointF,PressureIn,WindDirection,WindDirectionDegrees,WindSpeedMPH,WindSpeedGustMPH,Humidity,HourlyPrecipIn,Conditions,Clouds,dailyrainin,SoftwareType,DateUTC
2013-02-24 00:01:00,42.0,37.0,30.46,East,91,6.0,8.0,83,0.00,,,0.02,,2013-02-24 08:01:00,
2013-02-24 00:11:00,42.0,38.0,30.47,East,92,10.0,10.0,85,0.00,,,0.02,,2013-02-24 08:11:00,
2013-02-24 00:21:00,42.0,38.0,30.47,East,92,10.0,10.0,85,0.00,,,0.02,,2013-02-24 08:21:00,
2013-02-24 00:31:00,42.0,38.0,30.47,ESE,103,8.0,11.0,85,0.00,,,0.02,,2013-02-24 08:31:00,
2013-02-24 00:41:00,42.0,38.0,30.47,ESE,103,8.0,11.0,85,0.00,,,0.02,,2013-02-24 08:41:00,
2013-02-24 00:53:00,42.0,38.0,30.47,ESE,107,9.0,11.0,85,0.00,,,0.02,,2013-02-24 08:53:00,
2013-02-24 01:01:00,42.0,38.0,30.48,ESE,105,9.0,11.0,85,0.00,,,0.02,,2013-02-24 09:01:00,
2013-02-24 01:11:00,42.0,38.0,30.48,ESE,105,9.0,11.0,85,0.00,,,0.02,,2013-02-24 09:11:00,
2013-02-24 01:21:00,42.0,38.0,30.48,ESE,110,9.0,11.0,85,0.00,,,0.02,,2013-02-24 09:21:00,
2013-02-24 01:31:00,42.0,38.0,30.48,ESE,117,9.0,12.0,85,0.00,,,0.02,,2013-02-24 09:31:00,
2013-02-24 01:41:00,42.0,38.0,30.48,ESE,117,9.0,12.0,85,0.00,,,0.02,,2013-02-24 09:41:00,
2013-02-24 01:51:00,42.0,38.0,30.48,SE,124,10.0,12.0,85,0.00,,,0.02,,2013-02-24 09:51:00,
2013-02-24 02:01:00,42.0,38.0,30.48,ESE,112,10.0,12.0,84,0.00,,,0.02,,2013-02-24 10:01:00,
2013-02-24 02:11:00,42.0,38.0,30.48,SSE,147,10.0,13.0,84,0.00,,,0.02,,2013-02-24 10:11:00,
2013-02-24 02:21:00,42.0,38.0,30.48,SSE,147,10.0,13.0,84,0.00,,,0.02,,2013-02-24 10:21:00,
2013-02-24 02:31:00,42.0,38.0,30.48,SSE,147,9.0,12.0,84,0.00,,,0.02,,2013-02-24 10:31:00,
2013-02-24 02:41:00,42.0,38.0,30.48,SSE,147,9.0,12.0,84,0.00,,,0.02,,2013-02-24 10:41:00,
2013-02-24 02:52:00,42.0,38.0,30.48,SE,141,9.0,13.0,84,0.00,,,0.02,,2013-02-24 10:52:00,
2013-02-24 03:01:00,42.0,38.0,30.47,South,170,9.0,12.0,84,0.00,,,0.02,,2013-02-24 11:01:00,
2013-02-24 03:11:00,42.0,38.0,30.47,South,170,9.0,12.0,84,0.00,,,0.02,,2013-02-24 11:11:00,
2013-02-24 03:21:00,42.0,38.0,30.46,SSE,152,9.0,12.0,84,0.00,,,0.02,,2013-02-24 11:21:00,
2013-02-24 03:31:00,42.0,38.0,30.46,SE,138,9.0,13.0,84,0.00,,,0.02,,2013-02-24 11:31:00,
2013-02-24 03:41:00,42.0,38.0,30.46,SE,138,9.0,13.0,84,0.00,,,0.02,,2013-02-24 11:41:00,
2013-02-24 03:52:00,42.0,38.0,30.46,SSE,152,9.0,13.0,84,0.00,,,0.02,,2013-02-24 11:52:00,
2013-02-24 04:01:00,42.0,38.0,30.46,SSE,156,10.0,14.0,84,0.00,,,0.02,,2013-02-24 12:01:00,
2013-02-24 04:11:00,42.0,38.0,30.46,SSE,156,10.0,14.0,84,0.00,,,0.02,,2013-02-24 12:11:00,
2013-02-24 04:21:00,42.0,38.0,30.46,SSE,156,10.0,13.0,84,0.00,,,0.02,,2013-02-24 12:21:00,
2013-02-24 04:31:00,42.0,38.0,30.45,SSE,147,9.0,13.0,84,0.00,,,0.02,,2013-02-24 12:31:00,
2013-02-24 04:55:00,42.0,38.0,30.45,SSE,148,9.0,13.0,84,0.00,,,0.02,,2013-02-24 12:55:00,
2013-02-24 05:03:00,42.0,37.0,30.45,SE,130,10.0,13.0,83,0.00,,,0.02,,2013-02-24 13:03:00,
2013-02-24 05:12:00,42.0,37.0,30.45,SE,134,10.0,14.0,83,0.00,,,0.02,,2013-02-24 13:12:00,
2013-02-24 05:23:00,42.0,37.0,30.45,SE,134,10.0,14.0,83,0.00,,,0.02,,2013-02-24 13:23:00,
2013-02-24 05:32:00,42.0,37.0,30.45,SE,142,8.0,14.0,83,0.00,,,0.02,,2013-02-24 13:32:00,
2013-02-24 05:42:00,42.0,37.0,30.45,SE,142,8.0,14.0,83,0.00,,,0.02,,2013-02-24 13:42:00,
2013-02-24 05:53:00,42.0,38.0,30.46,SSE,147,9.0,15.0,84,0.00,,,0.02,,2013-02-24 13:53:00,
2013-02-24 06:01:00,42.0,38.0,30.45,SE,135,12.0,15.0,84,0.00,,,0.01,,2013-02-24 14:01:00,
2013-02-24 06:11:00,42.0,38.0,30.45,SE,135,12.0,15.0,84,0.00,,,0.01,,2013-02-24 14:11:00,
2013-02-24 06:22:00,42.0,38.0,30.45,SE,135,12.0,15.0,84,0.00,,,0.01,,2013-02-24 14:22:00,
2013-02-24 06:31:00,42.0,38.0,30.45,SE,138,9.0,16.0,85,0.00,,,0.01,,2013-02-24 14:31:00,
2013-02-24 06:42:00,42.0,38.0,30.45,SE,138,9.0,16.0,85,0.00,,,0.01,,2013-02-24 14:42:00,
2013-02-24 06:53:00,42.0,38.0,30.44,SE,135,10.0,15.0,85,0.00,,,0.01,,2013-02-24 14:53:00,
2013-02-24 07:02:00,42.0,38.0,30.44,SSE,155,10.0,16.0,85,0.00,,,0.01,,2013-02-24 15:02:00,
2013-02-24 07:11:00,42.0,38.0,30.44,SE,127,10.0,15.0,85,0.00,,,0.01,,2013-02-24 15:11:00,
2013-02-24 07:31:00,42.0,38.0,30.44,SE,127,9.0,17.0,85,0.00,,,0.01,,2013-02-24 15:31:00,
2013-02-24 07:41:00,42.0,38.0,30.44,SE,127,9.0,17.0,85,0.00,,,0.01,,2013-02-24 15:41:00,
2013-02-24 07:52:00,42.0,38.0,30.45,SE,140,9.0,14.0,85,0.00,,,0.01,,2013-02-24 15:52:00,
2013-02-24 08:01:00,42.0,38.0,30.44,ESE,113,9.0,16.0,85,0.00,,,0.01,,2013-02-24 16:01:00,
2013-02-24 08:11:00,42.0,38.0,30.43,ESE,121,7.0,19.0,86,0.00,,,0.01,,2013-02-24 16:11:00,
2013-02-24 08:21:00,42.0,38.0,30.43,ESE,121,7.0,19.0,86,0.00,,,0.01,,2013-02-24 16:21:00,
2013-02-24 08:31:00,42.0,38.0,30.42,SSE,156,11.0,13.0,85,0.00,,,0.01,,2013-02-24 16:31:00,
2013-02-24 08:41:00,42.0,38.0,30.42,SSE,156,11.0,13.0,85,0.00,,,0.01,,2013-02-24 16:41:00,
2013-02-24 08:52:00,43.0,39.0,30.42,SSE,151,7.0,15.0,85,0.00,,,0.01,,2013-02-24 16:52:00,
2013-02-24 09:01:00,43.0,39.0,30.41,SE,134,9.0,15.0,85,0.00,,,0.01,,2013-02-24 17:01:00,
2013-02-24 09:11:00,43.0,39.0,30.41,SE,134,9.0,15.0,85,0.00,,,0.01,,2013-02-24 17:11:00,
2013-02-24 09:21:00,44.0,40.0,30.42,ESE,121,11.0,15.0,85,0.00,,,0.01,,2013-02-24 17:21:00,
2013-02-24 09:31:00,44.0,40.0,30.42,SSE,147,10.0,16.0,85,0.00,,,0.01,,2013-02-24 17:31:00,
2013-02-24 09:41:00,44.0,40.0,30.42,SSE,147,10.0,16.0,85,0.00,,,0.01,,2013-02-24 17:41:00,
2013-02-24 09:52:00,45.0,40.0,30.40,ESE,123,8.0,16.0,84,0.00,,,0.01,,2013-02-24 17:52:00,
2013-02-24 10:01:00,45.0,40.0,30.41,SSE,148,10.0,17.0,83,0.00,,,0.01,,2013-02-24 18:01:00,
2013-02-24 10:11:00,45.0,40.0,30.41,SSE,148,10.0,17.0,83,0.00,,,0.01,,2013-02-24 18:11:00,
2013-02-24 10:21:00,46.0,39.0,30.40,South,170,10.0,16.0,76,0.00,,,0.01,,2013-02-24 18:21:00,
2013-02-24 10:31:00,47.0,40.0,30.39,ESE,105,8.0,17.0,77,0.00,,,0.01,,2013-02-24 18:31:00,
2013-02-24 10:41:00,47.0,40.0,30.39,ESE,105,8.0,17.0,77,0.00,,,0.01,,2013-02-24 18:41:00,
2013-02-24 10:52:00,48.0,41.0,30.38,SE,145,10.0,18.0,76,0.00,,,0.01,,2013-02-24 18:52:00,
2013-02-24 11:01:00,49.0,41.0,30.38,SE,145,11.0,20.0,74,0.00,,,0.01,,2013-02-24 19:01:00,
2013-02-24 11:11:00,49.0,41.0,30.38,SE,145,11.0,20.0,74,0.00,,,0.01,,2013-02-24 19:11:00,
2013-02-24 11:21:00,49.0,39.0,30.38,SSE,161,13.0,17.0,69,0.00,,,0.01,,2013-02-24 19:21:00,
2013-02-24 11:31:00,49.0,38.0,30.38,South,173,10.0,18.0,66,0.00,,,0.01,,2013-02-24 19:31:00,
2013-02-24 11:41:00,49.0,38.0,30.38,South,173,10.0,18.0,66,0.00,,,0.01,,2013-02-24 19:41:00,
2013-02-24 11:52:00,50.0,38.0,30.38,South,186,14.0,17.0,62,0.00,,,0.01,,2013-02-24 19:52:00,
2013-02-24 12:01:00,50.0,36.0,30.38,South,170,12.0,17.0,59,0.00,,,0.01,,2013-02-24 20:01:00,
2013-02-24 12:11:00,50.0,36.0,30.38,South,170,12.0,17.0,59,0.00,,,0.01,,2013-02-24 20:11:00,
2013-02-24 12:21:00,50.0,36.0,30.37,SSE,152,12.0,19.0,59,0.00,,,0.01,,2013-02-24 20:21:00,
2013-02-24 12:31:00,50.0,35.0,30.37,SSE,166,11.0,19.0,57,0.00,,,0.01,,2013-02-24 20:31:00,
2013-02-24 12:41:00,51.0,37.0,30.37,SSE,162,11.0,18.0,58,0.00,,,0.01,,2013-02-24 20:41:00,
2013-02-24 12:52:00,51.0,37.0,30.37,SSE,162,11.0,18.0,58,0.00,,,0.01,,2013-02-24 20:52:00,
2013-02-24 13:01:00,51.0,37.0,30.35,South,176,10.0,17.0,59,0.00,,,0.01,,2013-02-24 21:01:00,
2013-02-24 13:11:00,51.0,37.0,30.35,South,176,10.0,17.0,59,0.00,,,0.01,,2013-02-24 21:11:00,
2013-02-24 13:21:00,51.0,36.0,30.34,South,169,9.0,19.0,57,0.00,,,0.01,,2013-02-24 21:21:00,
2013-02-24 13:31:00,51.0,37.0,30.32,SE,135,10.0,16.0,59,0.00,,,0.01,,2013-02-24 21:31:00,
2013-02-24 13:41:00,51.0,37.0,30.32,SE,135,10.0,16.0,59,0.00,,,0.01,,2013-02-24 21:41:00,
2013-02-24 13:52:00,51.0,37.0,30.31,SSE,149,11.0,16.0,58,0.00,,,0.01,,2013-02-24 21:52:00,
2013-02-24 14:01:00,51.0,37.0,30.30,SE,134,7.0,15.0,59,0.00,,,0.01,,2013-02-24 22:01:00,
2013-02-24 14:11:00,51.0,37.0,30.30,SE,134,7.0,15.0,59,0.00,,,0.01,,2013-02-24 22:11:00,
2013-02-24 14:21:00,51.0,38.0,30.29,SSE,149,10.0,17.0,60,0.00,,,0.01,,2013-02-24 22:21:00,
2013-02-24 14:31:00,51.0,38.0,30.29,SE,144,10.0,16.0,60,0.00,,,0.01,,2013-02-24 22:31:00,
2013-02-24 14:41:00,51.0,38.0,30.29,SE,144,10.0,16.0,60,0.00,,,0.01,,2013-02-24 22:41:00,
2013-02-24 14:52:00,51.0,37.0,30.29,SE,130,11.0,18.0,59,0.00,,,0.01,,2013-02-24 22:52:00,
2013-02-24 15:01:00,51.0,38.0,30.28,SSE,162,9.0,15.0,61,0.00,,,0.01,,2013-02-24 23:01:00,
2013-02-24 15:11:00,51.0,38.0,30.28,SSE,162,9.0,15.0,61,0.00,,,0.01,,2013-02-24 23:11:00,
2013-02-24 15:21:00,50.0,38.0,30.27,SSE,166,8.0,16.0,63,0.00,,,0.01,,2013-02-24 23:21:00,
2013-02-24 15:31:00,50.0,38.0,30.27,SSE,162,10.0,17.0,64,0.00,,,0.01,,2013-02-24 23:31:00,
2013-02-24 15:41:00,50.0,38.0,30.27,SSE,162,10.0,17.0,64,0.00,,,0.01,,2013-02-24 23:41:00,
2013-02-24 15:52:00,49.0,38.0,30.27,South,184,10.0,14.0,65,0.00,,,0.01,,2013-02-24 23:52:00,
2013-02-24 16:01:00,49.0,38.0,30.26,South,177,9.0,16.0,65,0.00,,,0.01,,2013-02-25 00:01:00,
2013-02-24 16:11:00,49.0,38.0,30.26,South,177,9.0,16.0,65,0.00,,,0.01,,2013-02-25 00:11:00,
2013-02-24 16:21:00,48.0,37.0,30.26,SE,144,11.0,16.0,66,0.00,,,0.01,,2013-02-25 00:21:00,
2013-02-24 16:31:00,48.0,37.0,30.24,South,170,10.0,15.0,66,0.00,,,0.01,,2013-02-25 00:31:00,
2013-02-24 16:41:00,48.0,37.0,30.24,South,170,10.0,15.0,66,0.00,,,0.01,,2013-02-25 00:41:00,
2013-02-24 16:52:00,48.0,38.0,30.23,SSE,154,12.0,15.0,68,0.00,,,0.01,,2013-02-25 00:52:00,
2013-02-24 17:01:00,48.0,38.0,30.21,SSE,158,12.0,18.0,68,0.00,,,0.01,,2013-02-25 01:01:00,
2013-02-24 17:11:00,47.0,38.0,30.21,SSE,155,12.0,16.0,70,0.00,,,0.01,,2013-02-25 01:11:00,
2013-02-24 17:21:00,47.0,38.0,30.21,SSE,155,12.0,16.0,70,0.00,,,0.01,,2013-02-25 01:21:00,
2013-02-24 17:31:00,47.0,38.0,30.20,SSE,149,10.0,17.0,71,0.00,,,0.01,,2013-02-25 01:31:00,
2013-02-24 17:41:00,47.0,38.0,30.20,SSE,149,10.0,17.0,71,0.00,,,0.01,,2013-02-25 01:41:00,
2013-02-24 17:52:00,47.0,38.0,30.20,South,176,12.0,18.0,71,0.00,,,0.01,,2013-02-25 01:52:00,
2013-02-24 18:01:00,47.0,38.0,30.19,SSE,161,12.0,18.0,72,0.00,,,0.01,,2013-02-25 02:01:00,
2013-02-24 18:11:00,47.0,39.0,30.19,SE,145,13.0,18.0,73,0.00,,,0.01,,2013-02-25 02:11:00,
2013-02-24 18:21:00,47.0,39.0,30.19,SE,145,13.0,18.0,73,0.00,,,0.01,,2013-02-25 02:21:00,
2013-02-24 18:31:00,46.0,39.0,30.18,SSE,154,12.0,19.0,75,0.00,,,0.01,,2013-02-25 02:31:00,
2013-02-24 18:41:00,46.0,39.0,30.18,SSE,154,12.0,19.0,75,0.00,,,0.01,,2013-02-25 02:41:00,
2013-02-24 18:52:00,46.0,39.0,30.17,SSE,159,15.0,20.0,75,0.00,,,0.01,,2013-02-25 02:52:00,
2013-02-24 19:01:00,46.0,39.0,30.16,SE,145,14.0,18.0,75,0.00,,,0.01,,2013-02-25 03:01:00,
2013-02-24 19:11:00,46.0,39.0,30.16,SE,145,14.0,18.0,75,0.00,,,0.01,,2013-02-25 03:11:00,
2013-02-24 19:21:00,46.0,39.0,30.16,SE,142,14.0,22.0,76,0.00,,,0.01,,2013-02-25 03:21:00,
2013-02-24 19:31:00,46.0,39.0,30.15,SSE,151,17.0,22.0,76,0.00,,,0.01,,2013-02-25 03:31:00,
2013-02-24 19:41:00,46.0,39.0,30.15,SSE,151,17.0,22.0,76,0.00,,,0.01,,2013-02-25 03:41:00,
2013-02-24 19:51:00,45.0,38.0,30.14,SE,142,18.0,25.0,76,0.00,,,0.01,,2013-02-25 03:51:00,
2013-02-24 20:01:00,45.0,38.0,30.13,South,170,15.0,26.0,77,0.00,,,0.01,,2013-02-25 04:01:00,
2013-02-24 20:11:00,45.0,38.0,30.13,South,170,15.0,26.0,77,0.00,,,0.01,,2013-02-25 04:11:00,
2013-02-24 20:21:00,45.0,38.0,30.14,SE,124,15.0,25.0,77,0.00,,,0.01,,2013-02-25 04:21:00,
2013-02-24 20:31:00,45.0,39.0,30.13,SE,140,20.0,27.0,78,0.00,,,0.01,,2013-02-25 04:31:00,
2013-02-24 20:41:00,45.0,39.0,30.13,SE,140,20.0,27.0,78,0.00,,,0.01,,2013-02-25 04:41:00,
2013-02-24 20:52:00,45.0,39.0,30.13,SE,141,21.0,28.0,78,0.00,,,0.01,,2013-02-25 04:52:00,
2013-02-24 21:01:00,45.0,39.0,30.13,SSE,158,20.0,29.0,79,0.00,,,0.01,,2013-02-25 05:01:00,
2013-02-24 21:11:00,45.0,39.0,30.13,SSE,158,20.0,29.0,79,0.00,,,0.01,,2013-02-25 05:11:00,
2013-02-24 21:21:00,45.0,39.0,30.12,SE,137,19.0,30.0,80,0.00,,,0.01,,2013-02-25 05:21:00,
2013-02-24 21:31:00,45.0,39.0,30.11,SSE,165,19.0,28.0,80,0.00,,,0.01,,2013-02-25 05:31:00,
2013-02-24 21:41:00,45.0,39.0,30.11,SSE,165,19.0,28.0,80,0.00,,,0.01,,2013-02-25 05:41:00,
2013-02-24 21:52:00,46.0,42.0,30.11,SE,142,23.0,34.0,86,0.00,,,0.01,,2013-02-25 05:52:00,
2013-02-24 22:02:00,46.0,43.0,30.10,SE,145,24.0,35.0,89,0.00,,,0.00,,2013-02-25 06:02:00,
2013-02-24 22:11:00,46.0,43.0,30.10,SE,145,24.0,35.0,89,0.00,,,0.00,,2013-02-25 06:11:00,
2013-02-24 22:21:00,46.0,40.0,30.10,SSE,147,24.0,38.0,80,0.00,,,0.00,,2013-02-25 06:21:00,
2013-02-24 22:31:00,46.0,40.0,30.10,SSE,149,26.0,40.0,80,0.00,,,0.00,,2013-02-25 06:31:00,
2013-02-24 22:41:00,46.0,40.0,30.10,SSE,149,26.0,40.0,80,0.00,,,0.00,,2013-02-25 06:41:00,
2013-02-24 22:51:00,47.0,40.0,30.10,SE,137,24.0,39.0,76,0.00,,,0.00,,2013-02-25 06:51:00,
2013-02-24 23:01:00,47.0,41.0,30.09,SE,145,26.0,42.0,79,0.01,,,0.01,,2013-02-25 07:01:00,
2013-02-24 23:11:00,47.0,43.0,30.06,SE,141,27.0,45.0,86,0.01,,,0.01,,2013-02-25 07:11:00,
2013-02-24 23:21:00,47.0,43.0,30.06,SE,141,27.0,45.0,86,0.01,,,0.01,,2013-02-25 07:21:00,
2013-02-24 23:31:00,47.0,42.0,30.04,ESE,121,29.0,40.0,83,0.01,,,0.01,,2013-02-25 07:31:00,
2013-02-24 23:41:00,47.0,42.0,30.04,ESE,121,29.0,40.0,83,0.01,,,0.01,,2013-02-25 07:41:00,
2013-02-24 23:52:00,47.0,42.0,30.03,SSE,155,27.0,45.0,84,0.01,,,0.01,,2013-02-25 07:52:00,